DC1NF-6 Weather Reports


Display with metric or nautical units.
time (UTC)temp
F
wind
direction
speed
MPH
gust
MPH
rain 1hr
in
rain 24hr
in
rain mn
in
humidity
%
barometer
mb
20260506050547 54 113 0.0 2.0 0.00 0.65 0.00 99 1006.2
20260506044541 54 0.0 2.0 0.00 0.65 0.00 99 1006.1
20260506043537 54 0.0 2.0 0.00 0.65 0.00 99 1006.0
20260506042534 54 0.0 0.0 0.00 0.65 0.00 99 1006.0
20260506041531 54 0.0 2.0 0.00 0.65 0.00 99 1005.9
20260506040527 54 0.0 2.0 0.00 0.65 0.00 99 1005.9
20260506035523 54 0.0 2.0 0.00 0.65 0.00 99 1005.8
20260506034518 54 113 0.0 2.0 0.00 0.65 0.00 99 1005.8
20260506033614 54 0.0 2.0 0.00 0.65 0.00 99 1005.9
20260506032611 54 0.0 0.0 0.00 0.65 0.00 99 1005.8
20260506031607 54 113 0.0 2.0 0.00 0.65 0.00 99 1005.9
20260506030604 54 0.0 2.0 0.00 0.65 0.00 99 1005.9
20260506025601 54 0.0 2.0 0.00 0.65 0.00 99 1005.9
20260506024557 54 0.0 2.0 0.00 0.65 0.00 99 1006.0
20260506023553 54 0.0 2.0 0.00 0.65 0.00 99 1006.0
20260506022550 54 146 0.0 2.0 0.00 0.65 0.00 99 1005.9
20260506020542 54 113 0.0 4.0 0.00 0.65 0.00 99 1006.0
20260506015539 54 0.0 2.0 0.00 0.65 0.00 99 1005.9
20260506014535 54 0.0 2.0 0.00 0.65 0.00 99 1006.1
20260506013531 54 0.0 2.0 0.00 0.65 0.00 99 1006.2
20260506012528 55 0.0 2.0 0.00 0.65 0.00 99 1006.3
20260506011524 55 90 0.0 2.0 0.00 0.65 0.00 99 1006.4
20260506010521 55 0.0 2.0 0.00 0.65 0.00 99 1006.4
20260506005518 55 113 0.0 2.0 0.00 0.65 0.00 99 1006.5
20260506004614 55 90 0.0 2.0 0.00 0.65 0.00 99 1006.5
20260506003610 55 90 0.0 2.0 0.00 0.65 0.00 99 1006.6
20260506002607 55 0.0 0.0 0.00 0.65 0.00 99 1006.7
20260506001603 55 0.0 2.0 0.00 0.65 0.00 99 1006.8
20260506000600 55 0.0 2.0 0.00 0.65 0.00 99 1006.9
20260505235556 55 150 0.0 2.0 0.00 0.65 0.00 99 1006.8
20260505234553 55 158 0.0 2.0 0.00 0.65 0.00 99 1006.9
20260505233549 55 0.0 2.0 0.00 0.65 0.00 99 1006.9
20260505232545 55 180 0.0 4.0 0.00 0.65 0.00 99 1006.9
20260505231542 55 0.0 0.0 0.00 0.65 0.00 99 1006.9
20260505230538 55 0.0 0.0 0.00 0.65 0.00 99 1006.9
20260505225535 55 0.0 0.0 0.00 0.65 0.00 99 1006.9
20260505224531 55 0.0 0.0 0.00 0.65 0.00 99 1007.0
20260505223528 55 0.0 0.0 0.00 0.65 0.00 99 1006.9
20260505222524 54 0.0 0.0 0.00 0.65 0.00 99 1006.9
20260505221520 55 0.0 0.0 0.00 0.65 0.00 99 1006.9
20260505220516 55 0.0 0.0 0.00 0.65 0.00 99 1006.9
20260505214609 55 0.0 0.0 0.00 0.65 0.65 99 1007.0
20260505213606 55 0.0 0.0 0.00 0.65 0.65 99 1007.2
20260505212602 55 0.0 0.0 0.00 0.65 0.65 99 1007.2
20260505211558 55 0.0 0.0 0.01 0.65 0.65 99 1007.2
20260505210555 55 0.0 0.0 0.01 0.65 0.65 99 1007.4
20260505205551 55 0.0 0.0 0.02 0.65 0.65 98 1007.2
20260505204548 55 0.0 0.0 0.02 0.65 0.65 98 1007.1
20260505203544 55 0.0 0.0 0.02 0.65 0.65 98 1006.9
20260505202541 55 0.0 0.0 0.02 0.65 0.65 98 1007.1
20260505201538 55 0.0 0.0 0.01 0.64 0.64 98 1007.1
20260505200534 55 0.0 0.0 0.01 0.64 0.64 98 1007.0
20260505195531 55 0.0 0.0 0.00 0.63 0.63 98 1006.9
20260505194527 55 0.0 0.0 0.00 0.63 0.63 98 1007.0
20260505193524 55 0.0 0.0 0.01 0.63 0.63 98 1007.0
20260505192520 55 0.0 0.0 0.04 0.63 0.63 98 1007.1
20260505191516 55 0.0 0.0 0.08 0.63 0.63 98 1007.0
20260505190612 55 0.0 0.0 0.11 0.63 0.63 98 1007.0
20260505185609 55 0.0 0.0 0.11 0.63 0.63 97 1007.0
20260505184605 55 0.0 0.0 0.12 0.63 0.63 97 1007.0
20260505183602 55 0.0 0.0 0.14 0.61 0.61 97 1006.8
20260505182559 55 0.0 0.0 0.20 0.59 0.59 97 1006.6
20260505181555 56 0.0 0.0 0.32 0.54 0.54 97 1006.7
20260505180551 55 0.0 0.0 0.37 0.52 0.52 96 1006.6
20260505175548 55 158 0.0 2.0 0.48 0.52 0.52 95 1006.8
20260505174544 55 135 0.0 2.0 0.51 0.51 0.51 96 1006.9
20260505173540 56 135 0.0 2.0 0.47 0.47 0.47 95 1007.0
20260505172537 56 180 0.0 4.0 0.39 0.39 0.39 95 1007.3
20260505171533 57 141 1.0 4.0 0.22 0.22 0.22 94 1007.1
20260505170530 58 184 1.0 4.0 0.15 0.15 0.15 92 1006.8
20260505165526 61 203 0.0 2.0 0.04 0.04 0.04 84 1006.4
20260505164523 64 0.0 0.0 0.00 0.00 0.00 76 1005.7
20260505163519 65 0.0 0.0 0.00 0.00 0.00 72 1005.2
20260505162516 65 0.0 0.0 0.00 0.00 0.00 70 1005.3
20260505161612 65 0.0 0.0 0.00 0.00 0.00 70 1005.4
20260505160608 66 0.0 2.0 0.00 0.00 0.00 69 1005.5
20260505152553 68 158 0.0 2.0 0.00 0.00 0.00 60 1005.9
20260505151550 69 0.0 0.0 0.00 0.00 0.00 57 1005.8
20260505150545 68 0.0 0.0 0.00 0.00 0.00 58 1005.9
20260505140523 72 134 1.0 4.0 0.00 0.00 0.00 54 1006.0
20260505124554 80 180 0.0 2.0 0.00 0.00 0.00 40 1006.6
20260505123550 81 180 0.0 2.0 0.00 0.00 0.00 39 1006.6
20260505122546 80 180 0.0 2.0 0.00 0.00 0.00 40 1006.7
20260505121542 80 169 0.0 2.0 0.00 0.00 0.00 39 1006.7
20260505120538 81 0.0 2.0 0.00 0.00 0.00 40 1006.8
20260505115535 81 180 0.0 2.0 0.00 0.00 0.00 39 1006.9
20260505114531 80 0.0 2.0 0.00 0.00 0.00 39 1007.1
20260505113527 79 180 0.0 2.0 0.00 0.00 0.00 41 1007.2
20260505112523 79 174 0.0 2.0 0.00 0.00 0.00 40 1007.2
20260505111520 79 174 0.0 4.0 0.00 0.00 0.00 42 1007.3
20260505110515 79 168 0.0 4.0 0.00 0.00 0.00 41 1007.4
20260505101557 76 0.0 2.0 0.00 0.00 0.00 48 1007.9
20260505100553 78 0.0 2.0 0.00 0.00 0.00 46 1008.0
20260505095550 76 158 0.0 2.0 0.00 0.00 0.00 50 1008.1
20260505094546 76 158 1.0 2.0 0.00 0.00 0.00 50 1008.1
20260505093541 76 180 0.0 2.0 0.00 0.00 0.00 51 1008.3
20260505092538 75 160 1.0 4.0 0.00 0.00 0.00 52 1008.3
20260505091534 75 158 0.0 2.0 0.00 0.00 0.00 56 1008.5
20260505090529 74 158 0.0 2.0 0.00 0.00 0.00 59 1008.6
20260505085526 73 0.0 2.0 0.00 0.00 0.00 60 1008.6
20260505084522 72 158 0.0 2.0 0.00 0.00 0.00 61 1008.8
20260505083518 69 158 0.0 2.0 0.00 0.00 0.00 66 1008.9
20260505082614 66 0.0 0.0 0.00 0.00 0.00 69 1009.0
20260505081610 65 0.0 0.0 0.00 0.00 0.00 69 1009.0
20260505080607 65 0.0 0.0 0.00 0.00 0.00 69 1009.2
20260505075603 66 0.0 0.0 0.00 0.00 0.00 70 1009.0
20260505074559 66 0.0 0.0 0.00 0.00 0.00 69 1009.0
20260505073555 66 158 0.0 2.0 0.00 0.00 0.00 70 1009.1
20260505072552 65 0.0 0.0 0.00 0.00 0.00 71 1009.2
20260505071547 64 158 0.0 2.0 0.00 0.00 0.00 72 1009.1
20260505070543 64 0.0 2.0 0.00 0.00 0.00 73 1009.2
20260505065540 64 158 0.0 2.0 0.00 0.00 0.00 72 1009.2
20260505064536 63 158 1.0 2.0 0.00 0.00 0.00 75 1009.2
20260505063532 62 158 0.0 2.0 0.00 0.00 0.00 76 1009.2
20260505062528 61 0.0 0.0 0.00 0.00 0.00 79 1009.2
20260505061524 60 0.0 0.0 0.00 0.00 0.00 81 1009.1
20260505060520 60 0.0 0.0 0.00 0.00 0.00 81 1009.1
20260505055516 59 0.0 0.0 0.00 0.00 0.00 81 1009.1